• In Russia
  • List of Countries
  • For 7 days
  • Water Temperature
  • Satellite Maps
  • Weather Map
  • Weather Widgets
  • user-avatar
    Login

    Hourly Weather Kaprun

    Today, 19 January, Friday

    Time Temperature Precipitation Wind Pressure Humidity
    00:00 -8°C° 0.5 mm 2 mps 586 mmHg 90%
    01:00 -7°C° 0.5 mm 1 mps 586 mmHg 91%
    02:00 -7°C° 0.7 mm 1 mps 586 mmHg 91%
    03:00 -7°C° 0.7 mm 1 mps 586 mmHg 91%
    04:00 -7°C° 0.7 mm 1 mps 586 mmHg 91%
    05:00 -6°C° 1 mm 1 mps 586 mmHg 93%
    06:00 -7°C° 1 mm 2 mps 587 mmHg 94%
    07:00 -7°C° 1 mm 2 mps 587 mmHg 95%
    08:00 -7°C° 0.9 mm 2 mps 587 mmHg 95%
    09:00 -7°C° 0.9 mm 2 mps 588 mmHg 95%
    10:00 -7°C° 0.9 mm 2 mps 588 mmHg 95%
    11:00 -7°C° 0.5 mm 2 mps 588 mmHg 94%
    12:00 -8°C° 0.5 mm 3 mps 588 mmHg 93%
    13:00 -8°C° 0.5 mm 3 mps 588 mmHg 91%
    14:00 -8°C° 0.2 mm 3 mps 588 mmHg 91%
    15:00 -8°C° 0.2 mm 2 mps 588 mmHg 91%
    16:00 -8°C° 0.2 mm 2 mps 589 mmHg 91%
    17:00 -10°C° 0.1 mm 2 mps 588 mmHg 91%
    18:00 -12°C° 0.1 mm 2 mps 588 mmHg 92%
    19:00 -13°C° 0.1 mm 2 mps 588 mmHg 92%
    20:00 -14°C° 0.1 mm 2 mps 588 mmHg 91%
    21:00 -14°C° 0.1 mm 2 mps 588 mmHg 90%
    22:00 -15°C° 0.1 mm 2 mps 588 mmHg 89%
    23:00 -15°C° 0.1 mm 2 mps 588 mmHg 89%

    Tomorrow, 20 January, Saturday

    Time Temperature Precipitation Wind Pressure Humidity
    00:00 -15°C° 0.1 mm 2 mps 588 mmHg 88%
    01:00 -13°C° 0.1 mm 1 mps 588 mmHg 87%
    02:00 -12°C° 0.2 mm 1 mps 588 mmHg 88%
    03:00 -12°C° 0.2 mm 1 mps 588 mmHg 88%
    04:00 -11°C° 0.2 mm 1 mps 588 mmHg 88%
    05:00 -11°C° 0.3 mm 1 mps 588 mmHg 89%
    06:00 -11°C° 0.3 mm 1 mps 588 mmHg 90%
    07:00 -11°C° 0.3 mm 1 mps 589 mmHg 91%
    08:00 -10°C° 0.1 mm 1 mps 589 mmHg 90%
    09:00 -10°C° 0.1 mm 1 mps 589 mmHg 89%
    10:00 -9°C° 0.1 mm 1 mps 589 mmHg 88%
    11:00 -8°C° 0.1 mm 1 mps 589 mmHg 85%
    12:00 -7°C° 0.1 mm 1 mps 589 mmHg 82%
    13:00 -7°C° 0.1 mm 1 mps 589 mmHg 79%
    14:00 -8°C° 0 mm 2 mps 588 mmHg 82%
    15:00 -8°C° 0 mm 2 mps 587 mmHg 85%
    16:00 -9°C° 0 mm 2 mps 586 mmHg 88%
    17:00 -9°C° 0.1 mm 2 mps 586 mmHg 89%
    18:00 -10°C° 0.1 mm 2 mps 585 mmHg 90%
    19:00 -12°C° 0.1 mm 2 mps 584 mmHg 92%
    20:00 -12°C° 0.4 mm 2 mps 584 mmHg 92%
    21:00 -12°C° 0.4 mm 2 mps 584 mmHg 93%
    22:00 -12°C° 0.4 mm 2 mps 584 mmHg 93%
    23:00 -10°C° 0.8 mm 2 mps 584 mmHg 94%

    Day after tomorrow, 21 January, Sunday

    Time Temperature Precipitation Wind Pressure Humidity
    00:00 -10°C° 0.8 mm 2 mps 584 mmHg 95%
    01:00 -10°C° 0.8 mm 2 mps 584 mmHg 96%
    02:00 -12°C° 1.2 mm 3 mps 585 mmHg 96%
    03:00 -12°C° 1.2 mm 3 mps 585 mmHg 96%
    04:00 -12°C° 1.2 mm 4 mps 586 mmHg 95%
    05:00 -14°C° 0.5 mm 4 mps 586 mmHg 95%
    06:00 -15°C° 0.5 mm 4 mps 587 mmHg 94%
    07:00 -15°C° 0.5 mm 3 mps 587 mmHg 94%
    08:00 -15°C° 0.3 mm 3 mps 588 mmHg 92%
    09:00 -15°C° 0.3 mm 3 mps 589 mmHg 91%
    10:00 -14°C° 0.3 mm 3 mps 589 mmHg 89%
    11:00 -14°C° 0.1 mm 3 mps 590 mmHg 86%
    12:00 -14°C° 0.1 mm 3 mps 590 mmHg 82%
    13:00 -13°C° 0.1 mm 3 mps 590 mmHg 78%
    14:00 -13°C° 0 mm 2 mps 590 mmHg 80%
    15:00 -13°C° 0 mm 2 mps 590 mmHg 81%
    16:00 -13°C° 0 mm 2 mps 590 mmHg 83%
    17:00 -14°C° 0 mm 2 mps 590 mmHg 82%
    18:00 -14°C° 0 mm 2 mps 590 mmHg 81%
    19:00 -15°C° 0 mm 2 mps 590 mmHg 81%
    20:00 -14°C° 0.3 mm 2 mps 591 mmHg 84%
    21:00 -11°C° 0.3 mm 1 mps 591 mmHg 87%
    22:00 -11°C° 0.3 mm 1 mps 592 mmHg 90%
    23:00 -10°C° 0.9 mm 1 mps 592 mmHg 92%

    22 January, Monday

    Time Temperature Precipitation Wind Pressure Humidity
    00:00 -9°C° 0.9 mm 1 mps 592 mmHg 94%
    01:00 -8°C° 0.9 mm 1 mps 592 mmHg 95%
    02:00 -8°C° 1.7 mm 1 mps 592 mmHg 96%
    03:00 -7°C° 1.7 mm 1 mps 592 mmHg 96%
    04:00 -7°C° 1.7 mm 1 mps 593 mmHg 96%
    05:00 -6°C° 2 mm 1 mps 593 mmHg 96%
    06:00 -6°C° 2 mm 1 mps 593 mmHg 96%
    07:00 -4°C° 2 mm 1 mps 593 mmHg 96%
    08:00 -4°C° 1.8 mm 1 mps 594 mmHg 97%
    09:00 -3°C° 1.8 mm 1 mps 594 mmHg 97%
    10:00 -2°C° 1.8 mm 1 mps 595 mmHg 97%
    11:00 -2°C° 1.4 mm 1 mps 595 mmHg 97%
    12:00 -3°C° 1.4 mm 2 mps 595 mmHg 98%
    13:00 -3°C° 1.4 mm 2 mps 595 mmHg 98%
    14:00 -3°C° 0.7 mm 2 mps 595 mmHg 98%
    15:00 -3°C° 0.7 mm 2 mps 595 mmHg 97%
    16:00 -3°C° 0.7 mm 2 mps 595 mmHg 97%
    17:00 -3°C° 1.7 mm 2 mps 596 mmHg 97%
    18:00 -3°C° 1.7 mm 2 mps 596 mmHg 96%
    19:00 -3°C° 1.7 mm 2 mps 596 mmHg 96%
    20:00 -3°C° 0.7 mm 2 mps 596 mmHg 95%
    21:00 -3°C° 0.7 mm 2 mps 596 mmHg 95%
    22:00 -4°C° 0.7 mm 2 mps 596 mmHg 95%
    23:00 -4°C° 0.1 mm 2 mps 596 mmHg 94%

    23 January, Tuesday

    Time Temperature Precipitation Wind Pressure Humidity
    00:00 -4°C° 0.1 mm 2 mps 596 mmHg 94%
    01:00 -5°C° 0.1 mm 2 mps 596 mmHg 94%
    02:00 -5°C° 0.2 mm 2 mps 596 mmHg 92%
    03:00 -4°C° 0.2 mm 2 mps 596 mmHg 91%
    04:00 -4°C° 0.2 mm 2 mps 597 mmHg 89%
    05:00 -4°C° 0.2 mm 2 mps 597 mmHg 89%
    06:00 -4°C° 0.2 mm 2 mps 597 mmHg 88%
    07:00 -4°C° 0.2 mm 2 mps 597 mmHg 88%
    08:00 -4°C° 0 mm 2 mps 598 mmHg 90%
    09:00 -3°C° 0 mm 2 mps 598 mmHg 93%
    10:00 -3°C° 0 mm 2 mps 599 mmHg 95%
    11:00 -2°C° 0 mm 2 mps 599 mmHg 96%
    12:00 -2°C° 0 mm 2 mps 599 mmHg 98%
    13:00 -2°C° 0 mm 2 mps 599 mmHg 99%
    14:00 -2°C° 0.1 mm 2 mps 599 mmHg 98%
    15:00 -3°C° 0.1 mm 2 mps 599 mmHg 98%
    16:00 -3°C° 0.1 mm 2 mps 599 mmHg 97%
    17:00 -4°C° 0.1 mm 2 mps 599 mmHg 95%
    18:00 -5°C° 0.1 mm 2 mps 599 mmHg 93%
    19:00 -6°C° 0.1 mm 2 mps 599 mmHg 91%
    20:00 -6°C° 0.1 mm 2 mps 599 mmHg 89%
    21:00 -6°C° 0.1 mm 2 mps 600 mmHg 88%
    22:00 -6°C° 0.1 mm 2 mps 600 mmHg 87%
    23:00 -6°C° 0 mm 2 mps 600 mmHg 87%

    24 January, Wednesday

    Time Temperature Precipitation Wind Pressure Humidity
    00:00 -6°C° 0 mm 2 mps 600 mmHg 87%
    01:00 -7°C° 0 mm 2 mps 600 mmHg 87%
    02:00 -7°C° 0 mm 2 mps 600 mmHg 86%
    03:00 -7°C° 0 mm 2 mps 600 mmHg 85%
    04:00 -7°C° 0 mm 2 mps 600 mmHg 84%
    05:00 -7°C° 0 mm 2 mps 600 mmHg 83%
    06:00 -7°C° 0 mm 2 mps 600 mmHg 81%
    07:00 -7°C° 0 mm 2 mps 600 mmHg 80%
    08:00 -6°C° 0 mm 2 mps 600 mmHg 81%
    09:00 -4°C° 0 mm 2 mps 601 mmHg 82%
    10:00 -1°C° 0 mm 1 mps 602 mmHg 83%
    11:00 0°C° 0 mm 1 mps 602 mmHg 88%
    12:00 0°C° 0 mm 1 mps 601 mmHg 93%
    13:00 +1°C° 0 mm 1 mps 601 mmHg 98%
    14:00 +1°C° 0 mm 1 mps 601 mmHg 94%
    15:00 0°C° 0 mm 1 mps 601 mmHg 89%
    16:00 0°C° 0 mm 1 mps 600 mmHg 85%
    17:00 -1°C° 0 mm 1 mps 600 mmHg 80%
    18:00 -2°C° 0 mm 1 mps 600 mmHg 76%
    19:00 -3°C° 0 mm 1 mps 600 mmHg 72%
    20:00 -3°C° 0 mm 1 mps 599 mmHg 71%
    21:00 -5°C° 0 mm 2 mps 599 mmHg 69%
    22:00 -5°C° 0 mm 2 mps 599 mmHg 68%
    23:00 -5°C° 0 mm 2 mps 599 mmHg 67%
    Show more